1st Responders/1st Detectors/Storm Spotters Weather Summary for Hopkins County, KY

Forecast Maps


Reg. NEXRAD Animation


National Fire Danger: Day 1 & 2 Map

Current NWS Watch/Warnings

SPC Convective Day 1 Outlook


Day 2 Outlook

(Click images to enlarge|Page will refresh every 5 minutes)
UK Ag. Weather Center Desktop Severe Weather Service[HERE]
Hopkins County, KY Hazardous Weather Outlook Webcast
(9 AM to 9 PM Mon-Fri)
[Fast]
[Dial-up]


UKAWC 1st Detectors/1st Responders Precision Weather Forecast For HOPKINS County, Kentucky
(based on the NWS County Digital Forecast)

ISSUED AT 10:00 UTC ON SATURDAY DEC 16 2017
DAY SATURDAY
CDT 3HR 6A 7A 8A 9A 10A 11A NOON 1P 2P 3P 4P 5P 6P
MAX/MIN -- 31° -- -- -- -- -- -- -- -- -- -- 52°
TEMP 31° 31° 34° 36° 40° 43° 47° 49° 52° 52° 52° 49° 47°
SKY COVER 5% 7% 7% 6% 5% 5% 4% 4% 4% 5% 5% 9% 14%
Clouds
DEW PT 27° 27° 27° 29° 29° 31° 31° 31° 31° 29° 29° 29° 31°
RH 84% 81% 77% 75% 67% 59% 53% 47% 44% 41% 42% 45% 53%
POP 12HR -- 0% -- -- -- -- -- -- -- -- -- -- --
RAIN/SNOW (liq.equ) -- 0.00in -- -- -- -- -- 0.00in -- -- -- -- --
SNOWFALL -- 0in -- -- -- -- -- 0in -- -- -- -- --
WIND SPEED(MPH) 6 6 7 7 8 9 10 10 10 10 9 8 7
WIND Gust(MPH) 10 6 8 10 14 15 15 16 16 15 15 13 8
WIND DIR SW S SW SW SW SW SW SW SW SW SW SW S
DEW Frost Frost Frost Frost -- -- -- -- -- -- -- -- --
HeatIndex 25 26 27 29 34 38 47 49 52 52 52 49 47
Rain -- -- -- -- -- -- -- -- -- -- -- -- --
Rain Showers -- -- -- -- -- -- -- -- -- -- -- -- --
WIND CHILL 25° 25° 28° 30° 35° 38° -- -- -- -- -- -- --
SPRAY COND
DRY COND
LIVESTOCK COLDSTRESS



DAY SUNDAY MONDAY TUESDAY WEDNESDAY THURSDAY FRIDAY
CDT 6HR 7P 8P 9P 10P 11P MIDN 1A 2A 3A 4A 5A 6A 7A 8A 9A 10A 11A NOON 1P 2P 3P 4P 5P 7P 10P 1A 4A 7A 10A 1P 4P 7P 1A 7A 1P 7P 1A 7A 1P 7P 1A 7A 1P 7P 1A 7A 1P 7P
MAX/MIN -- -- -- -- -- -- -- -- -- -- -- -- 38° -- -- -- -- -- -- -- -- -- 49° -- -- -- -- 40° -- -- 56° -- -- 43° 58° -- -- 34° 54° -- -- 36° 58° -- -- 38° 47° --
TEMP 43° 41° 40° 40° 40° 38° 38° 38° 38° 38° 38° 38° 38° 38° 38° 40° 40° 43° 45° 47° 49° 49° 47° 41° 41° 41° 41° 40° 45° 54° 56° 49° 47° 43° 58° 49° 41° 34° 52° 45° 38° 40° 58° 52° 49° 38° 47° 38°
SKY COVER 18% 19% 19% 20% 33% 46% 61% 67% 73% 80% 86% 92% 98% 98% 99% 99% 99% 100% 100% 99% 99% 98% 97% 96% 91% 85% 87% 88% 88% 88% 78% 68% 58% 67% 49% 38% 14% 7% 14% 17% 16% 30% 36% 41% 75% 80% 73% 64%
Clouds
DEW PT 31° 31° 29° 29° 29° 31° 31° 31° 31° 31° 31° 31° 31° 32° 34° 34° 36° 38° 38° 38° 38° 38° 38° 40° 40° 40° 41° 40° 43° 45° 43° 43° 43° 40° 40° 36° 32° 29° 27° 29° 29° 32° 38° 38° 38° 34° 29° 25°
RH 59% 64% 64% 64% 67% 73% 75% 75% 78% 78% 78% 78% 78% 82% 82% 82% 82% 82% 79% 73% 68% 68% 73% 93% 92% 96% 99% 100% 92% 71% 61% 79% 86% 89% 50% 58% 70% 78% 37% 52% 67% 76% 49% 58% 68% 85% 49% 56%
POP 12HR 0% -- -- -- -- -- -- -- -- -- -- -- 16% -- -- -- -- -- -- -- -- -- -- 88% -- -- -- 12% -- -- -- 10% -- 11% -- 9% -- 12% -- 1% -- 3% -- 8% -- 47% -- 31%
RAIN/SNOW (liq.equ) 0.00in -- -- -- -- -- 0.00in -- -- -- -- -- 0.00in -- -- -- -- -- 0.10in -- -- -- -- 0.00in -- 0.00in -- 0.00in -- 0.00in -- 0.00in -- -- -- -- -- -- -- -- -- -- -- -- -- -- -- --
SNOWFALL 0in -- -- -- -- -- 0in -- -- -- -- -- 0in -- -- -- -- -- 0in -- -- -- -- 0in -- 0in -- 0in -- 0in -- 0in -- -- -- -- -- -- -- -- -- -- -- -- -- -- -- --
WIND SPEED(MPH) 7 7 6 6 6 5 5 5 5 5 5 6 6 6 7 7 7 7 7 7 7 6 6 5 5 2 2 2 6 7 7 6 7 6 8 6 5 5 6 6 6 7 14 10 9 9 9 8
WIND DIR S S S S S S S S S S S S S S S S S S S S S S S S S S SW SW SW SW SW SW SW W NW NW N N S SE S S S S SW W W NW
HeatIndex 40 37 37 37 35 35 34 34 34 34 34 33 33 33 34 35 36 38 40 47 49 49 47 39 39 40 40 37 41 54 56 49 47 40 58 49 39 31 52 41 34 35 58 52 49 32 47 32
Rain -- -- -- -- -- -- Slight Chance Slight Chance Slight Chance -- -- -- Definite Definite Definite Definite Definite Definite Chance Chance Chance Chance Chance -- -- -- -- -- -- -- -- -- -- -- -- -- -- -- -- -- -- -- -- -- Chance Chance -- --
Rain Showers -- -- -- -- -- -- -- -- -- -- -- -- -- -- -- -- -- -- -- -- -- -- -- -- -- -- -- -- -- -- -- -- -- -- -- -- -- -- -- -- -- -- -- -- -- -- Slight Chance --
WIND CHILL 39° 36° 36° 36° 36° 35° 35° 35° 35° 35° 35° 34° 34° 34° 33° 35° 35° 39° 41° -- -- -- -- 38° 38° -- -- -- 42° -- -- -- -- 39° -- -- 38° 30° -- 42° 34° 35° -- -- -- 32° -- 32°
SPRAY COND
DRY COND
LIVESTOCK COLDSTRESS

Click on individual weather variable above in left-hand column (ie., TEMP, RH, QPF 12HR) to view state forecast maps






NWS 48 Hr. Forecast Maps,

Regional Hourly Observations For HOPKINS County, Kentucky
Issued at 500 AM EST SAT DEC 16 2017
WESTERN AND SOUTH CENTRAL KENTUCKY
  
CITY           SKY/WX    TMP DP  RH WIND       PRES   REMARKS
PADUCAH        PTCLDY    34  25  69 S6        30.13F WCI  29          
HENDERSON      CLEAR     32  27  81 S9        30.12F WCI  24          
OWENSBORO      CLEAR     31  26  82 S6        30.14S WCI  25          
HOPKINSVILLE   CLEAR     33  25  73 S10       30.16F WCI  24          
BOWLING GREEN  CLEAR     31  25  78 S7        30.18F WCI  24          
GLASGOW        CLEAR     30  24  78 S5        30.17F WCI  25          


Current NOWCAST not available:
Nowcasts are not issued routinely during fair weather. Only when
precipitation or other significant weather is occuring in this county will these
forecasts be issued. Currently, there is no short term forecast in effect.


Fire Weather Forecast For HOPKINS County, KY
Provided by the National Weather Service:

Issued at: Sat Dec 16 05:05:01 EST 2017

Precip Type           NONE         NONE         rain         
Chance Precip (%)     0            0            90           
High Temperature(F)   50-54                     46-50        
Minimum RH(%)         38-43                     63-68        
Low Temperature(F)                 34-38                     
Maximum RH(%)                      86-91                     
Temp (24h Trend)      53 (+12)     35 (+5)      49           
RH % (24h Trend)      41 (-5)      89 (+4)      66           
20FTWND-AM(MPH)       SW 7-11 G25               S 4-8        
20FTWND-PM(MPH)       SW 8-12 G25  S 4-8        S 4-8        
Precip Amount         0.00         0.00         0.12         
Precip Duration                                 7            
Precip Begin                                    6 AM         
Precip End                                      6 PM         
1700'Mix Hgt Temp     46                        47           
Mixing Hgt(FT-AGL)    3072                      2544         
Transport Wind (KTS)  SW 26                     SW 18        
Transport Wind (M/S)  SW 13                     SW  9        
Vent Rate (M/S-M)     12168                     6975         
Dispersion Index      Good                      Fair to Good 
LAL                   1            1            1            
Haines Index          4            3            2            
Stability(DSI)        STBL         STBL         STBL         

Remarks...None.

.Forecast for days 3 through 7...

.SUNDAY NIGHT...Cloudy. Lows in the lower 40s. South winds around
5 mph. 
.MONDAY...Mostly cloudy. Highs in the upper 50s. Southwest winds
5 to 10 mph. 
.MONDAY NIGHT...Mostly cloudy. Lows in the lower 40s. Southwest
winds 5 to 10 mph. 
.TUESDAY...Partly sunny. Highs in the upper 50s. West winds 5 to
10 mph. 
.TUESDAY NIGHT...Partly cloudy. Lows in the upper 30s. North
winds around 5 mph. 
.WEDNESDAY...Mostly sunny with a 20 percent chance of rain
showers. Highs in the lower 50s. East winds 5 to 10 mph. 
.WEDNESDAY NIGHT...Partly cloudy. Lows in the upper 30s.
Southeast winds around 5 mph. 
.THURSDAY...Mostly sunny. Highs in the mid 50s. South winds 5 to
10 mph. 
.THURSDAY NIGHT...Mostly cloudy with a 40 percent chance of rain.
Lows in the upper 30s. Southwest winds 5 to 10 mph. 
.FRIDAY...Mostly cloudy with a 20 percent chance of rain showers.
Highs around 50. Northwest winds 5 to 15 mph. 

SPC's Fire Weather Web Tool (Excellent!), SPC's Fire Weather Outlooks, NWS Fire Weather WEB, Fire Danger Class Map,
Keetch-Byram Drought Index, ROMAN Web, Haines Index ,
WFAS's 10-hr Dead Fuel Moist., WFAS's 100-hr Dead Fuel Moist., Probablity of Ignition, Visual blackness Map, Palmer Drought Index, HPC's Rainfall Forecast Maps


Hazardous Weather Outlook For HOPKINS County, Kentucky
335 AM CST Sat Dec 16 2017

 DAY ONE  Today and Tonight

No hazardous weather is expected at this time.

 DAYS TWO THROUGH SEVEN  Sunday through Friday

No hazardous weather is expected at this time.

 SPOTTER INFORMATION STATEMENT  

Spotter activation is not anticipated.

Latest HOPKINS County, Kentucky Watches, Warnings and Advisories.
Additional Drought Info.: UKAWC Drought Page, Kentucky Drought Watch


7-Day Forecast For HOPKINS County, KY

TODAY
Mostly sunny. Highs in the lower 50s. Southwest winds around 10 mph with gusts to around 25 mph.

TONIGHT
Mostly clear in the evening then becoming mostly cloudy. Lows in the upper 30s. South winds around 5 mph.

SUNDAY
Cloudy. Rain in the morning, then a chance of rain in the afternoon. Highs in the upper 40s. South winds around 5 mph. Chance of precipitation 90 percent.

SUNDAY NIGHT
Mostly cloudy. Lows around 40. South winds around 5 mph.

MONDAY
Mostly cloudy. Highs in the upper 50s. Southwest winds 5 to 10 mph.

MONDAY NIGHT
Mostly cloudy. Lows in the lower 40s.

TUESDAY
Partly sunny. Highs in the upper 50s.

TUESDAY NIGHT
Mostly clear. Lows in the mid 30s.

WEDNESDAY
Partly sunny with a 20 percent chance of rain showers. Highs in the lower 50s.

WEDNESDAY NIGHT
Mostly clear. Lows in the mid 30s.

THURSDAY
Partly sunny. Highs in the mid 50s.

THURSDAY NIGHT
Mostly cloudy. A 40 percent chance of rain after midnight. Lows in the upper 30s.

FRIDAY
Mostly cloudy. A 20 percent chance of rain showers in the morning. Highs around 50.

Ag Weather Center, Department of Biosystems & Agricultural Engineering, University of Kentucky